Reflectivity
2 16 14 -18 -20 -13 -13 -20 -20 6 -20 -20 -20 -8 -20 -14 -20 -20 -20 -20 -20 3 22 11 5 -7 -7 14 2 -10 17 16 -13 -20 -20 0 27 13 25 37 31 11 33 3 -17
7 2 18 11 -14 -20 -20 -20 -20 -12 -12 -20 -20 -20 -3 -20 -20 -20 -20 -20 -20 15 -20 -12 9 9 2 -20 10 18 16 -1 -9 16 26 -3 25 11 16 32 -8 18 31 -0 3
10 14 17 24 9 -20 -10 -20 -20 -16 -11 -20 -20 -20 -10 -20 -20 -20 -20 -20 -20 -10 -20 -17 13 4 1 -20 -9 14 14 -11 26 28 33 8 25 29 35 24 -20 -20 36 20 6
13 10 12 1 11 -20 -17 -20 -20 -20 -4 -20 -20 -8 -19 -20 -20 -20 -20 -20 -20 -20 -20 -2 -12 10 14 -13 -20 -20 -11 13 26 -3 -1 -2 27 28 28 16 -20 -19 33 19 5
-8 -17 -4 -7 7 10 -15 -20 -20 -20 -12 -20 -20 -5 -20 -20 -20 -20 -20 -20 -20 -20 -4 -8 -18 12 18 23 14 -8 25 3 19 -20 -19 28 32 24 -12 -16 19 40 49 9 17
-7 -20 -4 7 23 9 3 -20 -20 -20 -20 -20 -18 -18 -20 -20 -20 -20 -20 -20 -20 -20 -13 -5 11 23 21 11 11 -8 20 -6 -2 4 9 13 11 22 -14 24 34 35 36 10 -20
-20 -20 -14 10 21 12 11 13 -20 -20 -20 -20 -1 -20 -20 -20 -20 -20 -20 -20 -20 -20 -18 -20 -18 -1 23 -20 -20 12 5 -20 9 9 17 -14 9 0 -20 14 13 -6 24 -12 -20
1 -10 -20 -20 5 19 12 13 -19 -20 -20 -20 -12 -15 -20 -20 -20 -20 -20 -20 -20 -20 -20 -20 7 20 19 8 -4 10 11 12 -19 10 1 -12 -13 -10 -11 6 -3 9 -20 29 -19
-12 -20 -20 -20 -19 10 15 16 7 -7 -20 -10 -10 -20 -20 -20 -20 -20 -20 -20 -20 -20 -20 -3 7 19 -8 -12 12 1 -20 -20 -20 -6 -15 0 -6 -15 30 31 -20 -20 -12 31 -2
-18 -20 -20 -20 -20 -20 13 17 -17 -20 -20 4 -15 -20 -20 -20 -20 -20 -20 -20 -20 -20 -14 -20 -19 9 -20 24 28 10 -20 -20 -20 -20 -20 -20 -7 -15 -10 -12 -11 1 -2 -7 29
1 -20 -20 -20 -14 -20 -20 2 -20 -20 -20 -5 -20 -20 -20 -20 -20 -20 -20 -20 -20 -20 -18 -20 14 17 -18 7 6 -4 -20 -20 -20 -20 -20 -20 -20 -20 -4 -20 -20 -11 -20 -20 -14
21 -20 -20 6 21 9 -5 5 -5 -19 -3 -19 -20 -20 -20 -20 -20 -20 -20 -20 -20 -20 3 -8 -12 7 -20 2 7 2 -20 -20 -20 -20 -20 -20 -16 -20 -20 -20 6 -20 -15 -20 -15
22 3 -20 -20 11 15 -12 -13 -10 3 -5 -20 -20 -20 -20 -20 -20 -20 -20 -20 -20 -20 -9 2 9 -20 -19 -17 -20 -8 2 -20 -20 -19 -20 -20 -20 -20 -20 -20 -20 -20 -20 31 -15
-3 22 -20 -20 -16 -14 1 -20 -20 -18 -5 -20 -20 -20 -20 -20 -20 -20 -20 -20 -20 -20 -20 -19 -20 -20 -20 -15 -20 -10 -20 -20 1 -4 5 -20 16 -20 -20 -20 -20 -20 -20 14 1
-4 25 -20 -20 -15 11 8 -20 -20 -17 -20 -20 -20 -20 -20 -20 -20 -20 -20 -20 -20 -20 -20 -20 -20 -20 -20 -6 -20 7 -20 -11 1 3 -4 -20 -20 11 -20 -20 -20 -20 -20 -20 -6
12 26 -15 -20 4 -3 6 -20 -18 -3 -20 -20 -20 -20 -20 -20 -20 -20 -20 -20 -20 -20 -20 -20 -20 -20 -14 -20 -20 -20 -11 -20 -13 -9 -9 -20 -20 3 -20 -20 4 -20 -20 -20 -10
30 33 -20 -20 4 18 -5 -20 6 8 -20 -20 -15 -20 -20 -20 -20 -20 -20 -20 -20 -20 -20 -20 -20 -20 -20 -12 -20 -20 18 21 10 8 -20 -20 -20 9 -20 -19 24 -1 -18 -20 -20
29 2 -20 -8 8 15 -16 -0 2 -20 -20 -20 -20 -20 -20 -20 -20 -20 -20 -20 -20 -20 -20 -20 -13 -20 -20 7 11 16 15 21 21 11 -1 -20 -7 -13 -20 -20 -20 -8 -17 -12 -20
-1 21 17 19 -5 28 -2 13 2 -11 -20 -20 -20 -20 -20 -20 -20 -20 -20 -20 -20 -20 -20 -20 -20 -20 -20 -20 -11 2 -2 15 12 -18 -20 -9 -20 -20 -20 -20 -20 -20 10 1 -20
14 14 20 33 25 25 6 -20 -3 -19 -20 -20 -20 -20 -20 -20 -20 -20 -20 -20 -20 -20 -20 -20 -7 -20 -20 -16 -16 -7 13 22 -3 18 12 -20 -20 10 -20 -20 -20 -20 -20 -5 5
13 22 6 28 17 -2 9 1 -15 -20 -20 -20 -20 -20 -20 -20 -20 -20 -20 -20 -20 -20 -20 -20 0 0 -19 -1 -5 13 -9 -10 21 11 19 17 -2 -20 -20 -20 -20 -20 -20 -20 -11
11 28 30 27 31 4 11 -12 -20 -20 -20 -20 -20 -20 -20 -20 -20 -20 -20 -20 -20 -20 -3 -19 -12 -3 -19 -20 -20 10 -13 -20 -18 23 -18 12 16 -20 -20 -20 -20 -20 -20 -20 -19
9 27 30 16 20 6 -15 -20 -20 -20 -20 -20 -20 -20 -20 -20 -20 -20 -20 -20 -20 -20 -5 -20 -20 -17 -20 -10 -18 -9 1 -6 -13 -4 10 -15 18 -14 -20 -20 -20 -20 -20 -20 -20
-2 16 10 19 17 7 -14 -20 -20 -20 -20 -20 -20 -20 -20 -20 -20 -20 -20 -20 -20 -20 -20 -20 -20 -20 -20 -10 -20 -20 -20 -20 -9 3 -20 6 21 8 -20 -20 -20 -20 -20 -20 -20
-17 8 4 5 13 6 -1 -15 -20 -20 -20 -20 -20 -20 -20 -20 -20 -20 -20 -20 -20 -20 -20 -20 -20 -20 -20 -20 -20 -20 -20 -20 -20 -20 -18 -20 -20 -20 -20 -20 -20 -20 -20 -20 -20
0 20 -20 10 2 1 -20 -20 -20 -20 -20 -20 -20 -20 -20 -20 -20 -20 -20 -20 -20 -20 -20 -20 -20 -20 -20 -20 -20 -20 -20 -20 -20 -20 -20 -20 -20 -20 -20 -20 -20 -20 -20 -20 -20
-2 -15 -14 10 8 -18 -17 -20 -20 -20 -20 -20 -20 -20 -20 -20 -20 -20 -20 -20 -20 -20 -20 -20 -20 -20 -20 -20 -20 -16 -20 -13 0 -15 -15 -17 -20 -20 -20 -20 -20 -20 -20 -5 -16
Wind_Speed
21 19 12 10 9 10 10 9 10 11 11 10 10 12 13 14 17 14 11 6 9 12 6 13 12 11 10 10 16 13 10 16 25 23 23 4 13 20 25 17 33 17 26 13 23
19 20 16 11 9 10 9 9 10 10 10 11 9 11 14 15 16 12 2 7 13 6 10 11 8 7 7 13 9 11 12 22 15 5 10 7 11 15 19 25 27 13 16 21 28
22 20 17 17 11 10 9 8 9 10 9 12 8 10 14 16 13 2 4 6 13 4 6 8 6 7 11 9 14 12 14 18 9 4 7 12 14 20 17 25 21 15 8 22 20
20 23 21 31 12 9 8 8 9 9 9 11 9 9 14 11 4 3 2 9 11 6 10 8 7 11 10 10 14 9 20 10 5 1 3 6 17 16 23 30 9 12 32 18 23
22 23 23 32 11 8 7 8 8 9 9 9 9 9 10 7 9 5 3 6 6 6 7 5 8 11 13 12 11 16 7 4 4 6 3 7 17 19 22 15 15 22 30 23 21
21 22 21 22 11 8 8 9 9 9 8 8 6 8 9 10 5 1 5 5 4 7 5 5 5 8 12 9 11 6 7 7 5 7 5 5 19 10 17 19 14 20 29 21 22
20 21 22 21 13 10 10 8 9 9 9 8 6 6 10 14 2 4 5 6 2 3 3 2 7 4 6 2 5 4 8 9 5 2 6 9 12 18 19 16 13 18 12 14 16
20 20 21 21 22 10 9 10 9 10 9 8 6 5 9 1 6 9 4 6 3 6 4 5 5 8 8 3 5 8 13 11 12 6 4 4 12 12 12 14 16 15 12 17 17
21 20 20 22 20 17 10 12 12 12 11 7 6 5 9 2 7 1 3 5 7 7 3 3 2 4 4 4 6 11 8 13 8 9 6 5 9 6 13 16 13 11 15 17 16
20 20 22 24 23 19 10 14 10 4 6 5 4 5 7 0 2 5 2 3 4 3 5 7 4 5 4 6 3 9 16 12 17 8 3 6 11 7 14 11 12 11 17 17 18
18 17 21 26 17 8 5 4 4 5 8 8 3 4 3 3 3 5 1 5 8 6 10 6 6 9 4 9 13 11 12 14 1 6 5 9 6 7 12 7 10 11 11 15 15
19 14 19 18 13 4 2 4 5 4 6 12 10 8 5 3 3 4 3 4 5 9 6 6 9 5 7 12 11 10 9 6 3 1 4 7 10 11 8 9 9 10 13 15 13
18 13 14 15 10 6 6 6 3 3 4 3 5 6 2 4 2 0 5 3 8 10 10 10 7 7 8 12 9 5 10 4 9 3 8 9 15 10 8 9 7 8 10 17 17
18 13 12 12 6 4 4 4 4 5 3 5 5 4 4 2 4 2 3 3 4 8 6 9 5 6 9 11 8 15 4 7 5 7 2 3 5 13 12 14 13 12 12 12 14
17 13 8 8 6 3 4 3 2 4 4 3 4 3 2 3 2 4 2 3 8 7 5 3 7 8 10 9 8 6 9 10 9 9 8 5 6 9 12 13 15 14 12 12 10
15 9 5 5 3 5 5 4 4 3 3 3 4 5 5 3 2 2 2 3 3 7 7 11 4 5 9 11 9 11 10 8 7 4 5 3 3 9 9 12 13 15 16 15 14
12 8 6 5 4 2 3 3 3 4 3 4 4 4 4 5 4 3 3 4 4 4 1 5 3 4 5 10 8 10 10 3 3 4 2 5 4 7 6 4 5 9 11 13 16
9 12 9 11 6 0 3 5 5 3 2 2 3 6 2 6 3 4 3 3 3 6 5 5 0 6 8 6 8 10 9 6 5 2 1 3 2 5 3 6 5 2 3 6 8
10 4 3 5 6 1 5 4 5 2 2 4 5 3 5 4 2 3 1 4 5 6 6 6 2 3 4 8 7 4 5 9 6 3 3 5 4 9 13 7 1 2 2 1 3
5 2 3 5 4 2 3 3 3 2 1 2 4 3 2 4 3 1 1 4 3 5 5 5 6 2 5 7 1 4 1 3 1 3 5 6 1 9 13 11 8 6 3 7 3
3 1 2 4 2 2 1 4 3 2 3 4 4 2 4 2 2 3 4 3 5 5 4 7 2 3 6 6 9 4 4 4 2 5 4 2 8 8 10 9 8 5 8 8 8
4 3 3 2 2 2 0 4 4 3 2 2 2 4 4 2 2 2 2 6 7 5 6 6 6 5 9 6 5 6 5 5 4 5 2 3 5 9 12 11 7 8 7 7 8
3 2 3 3 2 2 2 3 3 3 0 1 3 3 2 2 1 2 2 3 7 4 6 7 1 5 5 3 8 5 5 6 2 3 4 4 4 13 15 15 12 10 10 10 10
3 3 3 2 3 3 1 2 2 2 1 3 3 1 0 1 2 2 3 2 3 3 5 4 1 3 6 6 5 7 8 7 5 3 6 5 3 12 15 16 13 10 10 11 11
5 4 4 2 1 3 3 3 2 2 2 2 2 2 4 1 0 1 1 3 3 1 1 2 0 4 5 5 6 8 8 8 1 5 3 7 10 11 12 11 11 9 9 10 12
3 3 5 5 3 3 2 4 4 2 7 4 2 4 3 4 6 4 1 2 3 2 2 4 2 1 2 5 4 1 4 5 7 8 8 9 9 8 10 10 8 7 6 8 11
3 2 1 4 2 3 4 4 6 3 4 6 4 1 4 5 6 6 6 6 4 2 3 2 2 2 3 4 2 2 2 0 2 2 4 6 7 13 12 11 10 10 9 7 9
Wind_Direction
338 334 265 262 278 292 296 295 302 306 302 306 315 315 313 307 303 285 276 294 308 299 272 288 266 250 240 237 221 243 233 240 237 230 265 248 285 263 266 241 264 283 216 169 156
326 331 321 254 258 277 292 299 307 303 301 299 309 314 310 309 296 288 229 278 281 307 288 305 294 174 204 212 207 211 232 245 250 159 310 297 286 292 286 266 262 264 251 114 142
339 335 315 303 243 262 283 288 294 295 296 294 307 313 307 308 289 214 120 282 309 264 273 266 281 236 236 225 205 215 244 248 161 189 311 356 338 246 266 251 251 253 216 143 152
333 332 333 334 233 252 280 289 291 285 291 293 308 314 310 286 290 63 350 312 313 274 273 263 262 228 243 224 212 222 233 276 162 165 302 328 313 276 240 247 228 268 310 169 163
337 333 333 341 224 237 262 280 284 282 287 294 310 313 303 253 256 96 262 316 297 254 282 279 270 249 262 234 224 227 200 227 160 122 61 325 313 288 260 254 242 232 272 157 166
337 337 333 334 256 243 256 268 274 276 280 279 285 306 275 266 75 317 335 328 287 278 318 300 297 286 283 284 228 276 190 187 145 120 123 307 302 296 247 250 220 245 277 152 184
336 338 331 333 290 265 270 278 289 281 276 279 286 275 263 258 296 316 305 308 226 246 301 268 325 317 304 300 281 245 191 181 189 125 143 295 308 226 250 269 294 278 252 172 182
330 332 328 330 331 266 276 275 286 278 269 268 262 262 264 156 305 279 285 310 188 258 229 303 308 254 271 225 207 221 241 237 177 190 195 60 299 313 235 254 256 251 209 193 162
324 326 325 320 314 306 275 283 283 275 266 255 227 217 267 99 238 306 292 309 300 248 175 173 321 267 229 243 221 217 234 228 228 200 184 203 284 317 300 234 262 252 200 181 147
318 323 325 320 295 297 274 285 284 256 224 213 254 238 242 303 325 298 247 277 289 263 276 229 232 254 221 247 263 296 220 226 220 173 214 272 273 291 312 239 247 248 197 167 166
305 321 327 333 316 240 290 289 190 186 218 208 193 284 295 315 241 203 2 298 243 244 252 193 248 248 223 279 289 290 273 263 189 131 244 241 256 220 276 215 225 194 204 170 174
301 317 328 345 5 28 288 242 302 359 266 226 254 263 283 318 280 200 320 271 258 261 200 235 266 272 311 293 289 281 271 255 62 136 255 297 281 215 219 218 204 197 204 161 136
304 304 322 337 344 294 252 256 312 297 259 151 205 241 245 211 289 117 337 342 282 278 262 272 274 324 292 295 288 282 300 350 319 149 240 277 253 199 185 205 174 191 185 166 155
305 295 311 328 299 336 260 310 239 265 274 150 176 147 172 233 224 359 30 330 253 298 306 275 337 292 287 285 314 299 14 297 293 267 325 327 327 184 169 193 185 174 175 183 182
303 290 295 324 305 245 320 306 236 246 227 115 131 112 139 246 54 129 45 245 286 306 273 293 328 327 283 300 327 311 324 296 290 281 314 178 266 129 166 200 188 181 176 176 177
309 290 292 284 216 267 313 300 247 216 198 139 134 159 162 189 184 119 221 216 315 290 262 287 305 288 321 310 282 301 276 254 270 250 270 25 285 136 187 196 195 190 171 169 171
329 292 277 270 265 297 262 230 214 260 169 136 142 164 200 155 173 199 194 211 291 278 241 312 321 305 292 293 242 262 278 250 212 228 287 41 290 11 27 347 193 194 175 164 172
314 305 289 248 204 216 208 231 244 65 105 110 132 142 179 165 137 158 215 229 164 298 309 342 241 1 4 313 314 308 287 277 277 304 123 108 233 49 38 358 112 58 330 129 182
312 17 346 93 125 200 220 241 36 65 123 147 146 180 148 164 318 199 39 27 18 345 346 339 29 326 329 328 329 352 268 333 304 287 316 132 139 80 48 51 266 243 102 213 184
340 16 21 67 123 231 245 338 67 30 104 258 52 327 130 130 204 229 38 43 14 3 337 18 301 54 336 306 179 307 83 306 253 260 232 135 108 50 29 14 17 60 52 90 79
295 22 29 54 45 229 269 31 47 5 309 346 52 63 26 76 345 74 55 80 359 350 327 328 318 3 279 21 347 2 30 11 174 289 317 341 68 9 14 2 338 21 56 70 68
313 9 65 27 84 273 25 15 5 358 246 45 24 34 10 46 85 80 50 33 351 325 337 24 313 303 357 18 348 46 71 19 349 6 357 285 68 54 41 34 28 28 44 59 69
21 4 52 332 63 184 51 38 348 324 296 41 61 21 11 40 15 64 85 43 6 7 15 4 80 291 175 146 70 26 36 30 117 277 338 345 91 49 36 51 35 30 31 44 41
13 23 62 44 328 327 327 45 348 25 353 30 59 332 179 86 17 122 136 72 20 33 356 287 12 307 311 335 335 311 321 331 32 321 333 347 299 65 38 25 29 31 50 51 42
7 25 351 35 319 288 5 8 284 24 26 354 91 328 353 359 211 78 85 156 101 16 9 15 23 331 309 338 312 269 276 297 219 262 303 340 316 321 345 355 8 34 34 38 34
28 8 348 313 80 299 71 46 339 23 346 57 356 45 12 22 13 1 355 296 31 102 47 352 106 338 279 348 349 220 258 267 280 277 290 292 303 5 5 351 354 22 17 3 1
102 144 333 313 95 262 15 3 8 336 65 38 347 69 78 43 61 61 63 68 76 13 45 57 131 280 63 28 347 142 58 91 308 335 319 286 346 340 330 335 335 329 335 342 353